Time,TemperatureF,DewpointF,PressureIn,WindDirection,WindDirectionDegrees,WindSpeedMPH,WindSpeedGustMPH,Humidity,HourlyPrecipIn,Conditions,Clouds,dailyrainin,SoftwareType,DateUTC
2013-04-04 00:00:00,41.1,39.5,30.19,NW,310,6.0,9.0,94,0.01,,---,0.00,VWS V14.01,2013-04-04 05:00:00,
2013-04-04 00:05:00,41.2,39.6,30.19,NW,312,5.0,7.0,94,0.01,,---,0.00,VWS V14.01,2013-04-04 05:05:00,
2013-04-04 00:08:00,41.2,39.6,30.19,NW,325,4.0,8.0,94,0.01,,---,0.00,VWS V14.01,2013-04-04 05:08:00,
2013-04-04 00:11:00,41.2,39.6,30.19,NNW,342,4.0,8.0,94,0.01,,---,0.00,VWS V14.01,2013-04-04 05:11:00,
2013-04-04 00:14:00,41.1,39.5,30.19,NW,315,3.0,8.0,94,0.01,,---,0.00,VWS V14.01,2013-04-04 05:14:00,
2013-04-04 00:21:00,41.1,39.5,30.19,NW,319,4.0,8.0,94,0.01,,---,0.00,VWS V14.01,2013-04-04 05:21:00,
2013-04-04 00:24:00,41.1,39.5,30.19,NW,321,2.0,9.0,94,0.01,,---,0.00,VWS V14.01,2013-04-04 05:24:00,
2013-04-04 00:27:00,41.1,39.5,30.19,NNW,329,2.0,9.0,94,0.01,,---,0.00,VWS V14.01,2013-04-04 05:27:00,
2013-04-04 00:30:00,41.1,39.5,30.19,NW,311,6.0,9.0,94,0.01,,---,0.00,VWS V14.01,2013-04-04 05:30:00,
2013-04-04 00:33:00,41.1,39.5,30.19,NNW,335,4.0,10.0,94,0.00,,---,0.00,VWS V14.01,2013-04-04 05:33:00,
2013-04-04 00:36:00,41.1,39.5,30.19,NW,323,5.0,10.0,94,0.00,,---,0.00,VWS V14.01,2013-04-04 05:36:00,
2013-04-04 00:39:00,41.1,39.5,30.19,NW,316,7.0,10.0,94,0.00,,---,0.00,VWS V14.01,2013-04-04 05:39:00,
2013-04-04 00:42:00,41.1,39.5,30.18,NNW,340,4.0,10.0,94,0.00,,---,0.00,VWS V14.01,2013-04-04 05:42:00,
2013-04-04 00:45:00,41.1,39.5,30.19,NNW,340,4.0,10.0,94,0.00,,---,0.00,VWS V14.01,2013-04-04 05:45:00,
2013-04-04 00:48:00,41.1,39.5,30.19,NW,313,5.0,10.0,94,0.01,,---,0.01,VWS V14.01,2013-04-04 05:48:00,
2013-04-04 00:54:00,41.1,39.5,30.18,NNW,339,2.0,10.0,94,0.01,,---,0.01,VWS V14.01,2013-04-04 05:54:00,
2013-04-04 00:57:00,41.1,39.5,30.18,NNW,333,4.0,10.0,94,0.01,,---,0.01,VWS V14.01,2013-04-04 05:57:00,
2013-04-04 01:00:00,41.1,39.5,30.18,NNW,331,3.0,10.0,94,0.01,,---,0.01,VWS V14.01,2013-04-04 06:00:00,
2013-04-04 01:03:00,41.1,39.5,30.19,NNW,344,4.0,5.0,94,0.01,,---,0.01,VWS V14.01,2013-04-04 06:03:00,
2013-04-04 01:06:00,41.1,39.5,30.19,NNW,333,6.0,7.0,94,0.01,,---,0.01,VWS V14.01,2013-04-04 06:06:00,
2013-04-04 01:09:00,41.0,39.4,30.19,NNW,336,4.0,7.0,94,0.01,,---,0.01,VWS V14.01,2013-04-04 06:09:00,
2013-04-04 01:15:00,41.0,39.4,30.18,NNW,340,5.0,7.0,94,0.01,,---,0.01,VWS V14.01,2013-04-04 06:15:00,
2013-04-04 01:18:00,41.0,39.4,30.18,NW,310,5.0,9.0,94,0.01,,---,0.01,VWS V14.01,2013-04-04 06:18:00,
2013-04-04 01:21:00,41.0,39.4,30.18,NNW,335,6.0,9.0,94,0.01,,---,0.01,VWS V14.01,2013-04-04 06:21:00,
2013-04-04 01:24:00,40.9,39.3,30.18,NNW,327,7.0,9.0,94,0.01,,---,0.01,VWS V14.01,2013-04-04 06:24:00,
2013-04-04 01:30:00,40.8,39.2,30.18,NNW,333,6.0,9.0,94,0.01,,---,0.01,VWS V14.01,2013-04-04 06:30:00,
2013-04-04 01:34:00,40.7,39.1,30.18,NNW,333,6.0,10.0,94,0.01,,---,0.01,VWS V14.01,2013-04-04 06:34:00,
2013-04-04 01:37:00,40.7,39.1,30.18,NW,318,6.0,10.0,94,0.01,,---,0.01,VWS V14.01,2013-04-04 06:37:00,
2013-04-04 01:40:00,40.7,39.1,30.18,NW,319,3.0,10.0,94,0.01,,---,0.01,VWS V14.01,2013-04-04 06:40:00,
2013-04-04 01:43:00,40.7,39.1,30.18,NW,318,3.0,10.0,94,0.01,,---,0.01,VWS V14.01,2013-04-04 06:43:00,
2013-04-04 01:46:00,40.7,39.4,30.18,NW,311,7.0,10.0,95,0.01,,---,0.01,VWS V14.01,2013-04-04 06:46:00,
2013-04-04 01:49:00,40.6,39.0,30.17,NW,318,3.0,10.0,94,0.01,,---,0.01,VWS V14.01,2013-04-04 06:49:00,
2013-04-04 01:58:00,40.6,39.0,30.18,NW,311,5.0,10.0,94,0.01,,---,0.01,VWS V14.01,2013-04-04 06:58:00,
2013-04-04 02:00:00,40.5,38.9,30.18,NW,306,4.0,10.0,94,0.01,,---,0.01,VWS V14.01,2013-04-04 07:00:00,
2013-04-04 02:07:00,40.5,38.9,30.18,WNW,282,9.0,11.0,94,0.00,,---,0.01,VWS V14.01,2013-04-04 07:07:00,
2013-04-04 02:13:00,40.4,38.8,30.17,NW,313,4.0,11.0,94,0.00,,---,0.01,VWS V14.01,2013-04-04 07:13:00,
2013-04-04 02:16:00,40.5,38.9,30.17,WNW,294,6.0,11.0,94,0.00,,---,0.01,VWS V14.01,2013-04-04 07:16:00,
2013-04-04 02:22:00,40.4,38.8,30.17,NNW,339,4.0,11.0,94,0.00,,---,0.01,VWS V14.01,2013-04-04 07:22:00,
2013-04-04 02:31:00,40.4,38.8,30.17,NNW,333,7.0,8.0,94,0.00,,---,0.01,VWS V14.01,2013-04-04 07:31:00,
2013-04-04 02:50:00,40.6,39.0,30.17,NW,321,5.0,10.0,94,0.01,,---,0.01,VWS V14.01,2013-04-04 07:50:00,
2013-04-04 03:00:00,40.1,38.8,30.16,NNW,340,5.0,11.0,95,0.01,,---,0.02,VWS V14.01,2013-04-04 08:00:00,
2013-04-04 03:03:00,40.5,38.9,30.18,NW,321,6.0,9.0,94,0.00,,---,0.01,VWS V14.01,2013-04-04 08:03:00,
2013-04-04 03:08:00,40.0,38.4,30.16,NW,311,2.0,9.0,94,0.01,,---,0.02,VWS V14.01,2013-04-04 08:08:00,
2013-04-04 03:09:00,40.4,38.8,30.17,NW,311,5.0,11.0,94,0.00,,---,0.01,VWS V14.01,2013-04-04 08:09:00,
2013-04-04 03:18:00,40.4,38.8,30.17,NNW,344,6.0,11.0,94,0.00,,---,0.01,VWS V14.01,2013-04-04 08:18:00,
2013-04-04 03:27:00,40.4,38.8,30.17,NW,320,4.0,11.0,94,0.00,,---,0.01,VWS V14.01,2013-04-04 08:27:00,
2013-04-04 03:33:00,40.3,38.7,30.16,NW,308,5.0,11.0,94,0.00,,---,0.01,VWS V14.01,2013-04-04 08:33:00,
2013-04-04 03:42:00,40.3,38.7,30.16,NW,326,5.0,11.0,94,0.00,,---,0.01,VWS V14.01,2013-04-04 08:42:00,
2013-04-04 03:48:00,40.2,38.9,30.16,NNW,342,6.0,11.0,95,0.00,,---,0.01,VWS V14.01,2013-04-04 08:48:00,
2013-04-04 03:54:00,40.1,38.8,30.16,NNW,340,4.0,11.0,95,0.01,,---,0.02,VWS V14.01,2013-04-04 08:54:00,
2013-04-04 03:57:00,40.1,38.8,30.16,NW,316,5.0,11.0,95,0.01,,---,0.02,VWS V14.01,2013-04-04 08:57:00,
2013-04-04 04:00:00,40.0,38.7,30.16,NNW,334,5.0,9.0,95,0.01,,---,0.02,VWS V14.01,2013-04-04 09:00:00,
2013-04-04 04:13:00,39.9,38.3,30.16,NW,311,8.0,11.0,94,0.01,,---,0.02,VWS V14.01,2013-04-04 09:13:00,
2013-04-04 04:16:00,39.9,38.3,30.16,NW,312,4.0,11.0,94,0.01,,---,0.02,VWS V14.01,2013-04-04 09:16:00,
2013-04-04 04:22:00,39.9,38.3,30.16,NW,305,8.0,11.0,94,0.01,,---,0.02,VWS V14.01,2013-04-04 09:22:00,
2013-04-04 04:25:00,39.9,38.3,30.16,NW,309,6.0,11.0,94,0.01,,---,0.02,VWS V14.01,2013-04-04 09:25:00,
2013-04-04 04:28:00,39.9,38.3,30.16,NNW,337,6.0,11.0,94,0.01,,---,0.02,VWS V14.01,2013-04-04 09:28:00,
2013-04-04 04:31:00,39.9,38.0,30.16,NNW,329,6.0,9.0,93,0.01,,---,0.02,VWS V14.01,2013-04-04 09:31:00,
2013-04-04 04:37:00,39.9,38.0,30.16,NNW,329,8.0,11.0,93,0.01,,---,0.02,VWS V14.01,2013-04-04 09:37:00,
2013-04-04 04:43:00,39.9,38.0,30.16,NNW,346,9.0,12.0,93,0.01,,---,0.02,VWS V14.01,2013-04-04 09:43:00,
2013-04-04 04:46:00,39.8,38.0,30.16,NW,305,7.0,12.0,93,0.01,,---,0.02,VWS V14.01,2013-04-04 09:46:00,
2013-04-04 04:49:00,39.8,38.0,30.16,NNW,331,4.0,12.0,93,0.01,,---,0.02,VWS V14.01,2013-04-04 09:49:00,
2013-04-04 04:52:00,39.8,38.0,30.16,NW,323,5.0,12.0,93,0.01,,---,0.02,VWS V14.01,2013-04-04 09:52:00,
2013-04-04 04:55:00,39.8,38.2,30.16,NW,314,8.0,12.0,94,0.01,,---,0.02,VWS V14.01,2013-04-04 09:55:00,
2013-04-04 05:04:00,39.7,38.1,30.17,NW,304,6.0,11.0,94,0.00,,---,0.02,VWS V14.01,2013-04-04 10:04:00,
2013-04-04 05:07:00,39.7,38.1,30.16,NW,314,4.0,11.0,94,0.00,,---,0.02,VWS V14.01,2013-04-04 10:07:00,
2013-04-04 05:10:00,39.7,38.1,30.16,NW,317,3.0,11.0,94,0.00,,---,0.02,VWS V14.01,2013-04-04 10:10:00,
2013-04-04 05:17:00,39.7,38.1,30.17,NNW,329,2.0,11.0,94,0.00,,---,0.02,VWS V14.01,2013-04-04 10:17:00,
2013-04-04 05:28:00,39.5,37.9,30.17,NNW,333,8.0,11.0,94,0.00,,---,0.02,VWS V14.01,2013-04-04 10:28:00,
2013-04-04 05:32:00,39.4,37.8,30.17,NW,325,7.0,12.0,94,0.00,,---,0.02,VWS V14.01,2013-04-04 10:32:00,
2013-04-04 05:38:00,39.4,38.1,30.17,WNW,301,4.0,12.0,95,0.00,,---,0.02,VWS V14.01,2013-04-04 10:38:00,
2013-04-04 05:47:00,39.5,38.2,30.17,NW,321,5.0,12.0,95,0.00,,---,0.02,VWS V14.01,2013-04-04 10:47:00,
2013-04-04 05:50:00,39.4,38.1,30.17,WNW,303,10.0,12.0,95,0.00,,---,0.02,VWS V14.01,2013-04-04 10:50:00,
2013-04-04 05:53:00,39.4,38.1,30.17,NW,321,5.0,12.0,95,0.00,,---,0.02,VWS V14.01,2013-04-04 10:53:00,
2013-04-04 05:56:00,39.3,38.0,30.17,NW,325,9.0,12.0,95,0.00,,---,0.02,VWS V14.01,2013-04-04 10:56:00,
2013-04-04 05:59:00,39.4,38.1,30.17,NW,316,5.0,10.0,95,0.00,,---,0.02,VWS V14.01,2013-04-04 10:59:00,
2013-04-04 06:02:00,39.4,37.8,30.17,NW,325,9.0,12.0,94,0.00,,---,0.02,VWS V14.01,2013-04-04 11:02:00,
2013-04-04 06:05:00,39.4,38.1,30.18,NW,323,3.0,12.0,95,0.00,,---,0.02,VWS V14.01,2013-04-04 11:05:00,
2013-04-04 06:12:00,39.4,37.8,30.18,NW,326,7.0,12.0,94,0.00,,---,0.02,VWS V14.01,2013-04-04 11:12:00,
2013-04-04 06:15:00,39.4,37.8,30.18,NW,317,6.0,12.0,94,0.00,,---,0.02,VWS V14.01,2013-04-04 11:15:00,
2013-04-04 06:18:00,39.4,37.8,30.18,NW,317,8.0,12.0,94,0.00,,---,0.02,VWS V14.01,2013-04-04 11:18:00,
2013-04-04 06:21:00,39.4,37.5,30.18,NW,313,8.0,12.0,93,0.00,,---,0.02,VWS V14.01,2013-04-04 11:21:00,
2013-04-04 06:24:00,39.4,37.5,30.18,WNW,300,6.0,12.0,93,0.00,,---,0.02,VWS V14.01,2013-04-04 11:24:00,
2013-04-04 06:28:00,39.4,37.5,30.18,NW,305,6.0,12.0,93,0.00,,---,0.02,VWS V14.01,2013-04-04 11:28:00,
2013-04-04 06:30:00,39.5,37.7,30.18,NW,313,9.0,9.0,93,0.00,,---,0.02,VWS V14.01,2013-04-04 11:30:00,
2013-04-04 06:39:00,39.4,37.3,30.18,NW,325,9.0,13.0,92,0.00,,---,0.02,VWS V14.01,2013-04-04 11:39:00,
2013-04-04 06:42:00,39.4,37.3,30.18,NW,314,6.0,13.0,92,0.00,,---,0.02,VWS V14.01,2013-04-04 11:42:00,
2013-04-04 06:45:00,39.4,37.3,30.18,NNW,338,5.0,13.0,92,0.00,,---,0.02,VWS V14.01,2013-04-04 11:45:00,
2013-04-04 06:48:00,39.4,37.3,30.18,NW,313,5.0,13.0,92,0.00,,---,0.02,VWS V14.01,2013-04-04 11:48:00,
2013-04-04 06:51:00,39.4,37.3,30.18,NNW,330,5.0,13.0,92,0.00,,---,0.02,VWS V14.01,2013-04-04 11:51:00,
2013-04-04 06:54:00,39.4,37.3,30.18,NNW,327,8.0,13.0,92,0.00,,---,0.02,VWS V14.01,2013-04-04 11:54:00,
2013-04-04 07:00:00,39.4,37.5,30.18,NNW,333,7.0,8.0,93,0.00,,---,0.02,VWS V14.01,2013-04-04 12:00:00,
2013-04-04 07:06:00,39.3,37.5,30.18,NNW,338,8.0,10.0,93,0.00,,---,0.02,VWS V14.01,2013-04-04 12:06:00,
2013-04-04 07:09:00,39.3,37.5,30.18,NW,313,4.0,10.0,93,0.00,,---,0.02,VWS V14.01,2013-04-04 12:09:00,
2013-04-04 07:12:00,39.3,37.5,30.18,NW,314,5.0,10.0,93,0.00,,---,0.02,VWS V14.01,2013-04-04 12:12:00,
2013-04-04 07:21:00,39.3,37.7,30.18,NW,310,5.0,10.0,94,0.00,,---,0.02,VWS V14.01,2013-04-04 12:21:00,
2013-04-04 07:24:00,39.3,37.7,30.18,NNW,336,10.0,10.0,94,0.00,,---,0.02,VWS V14.01,2013-04-04 12:24:00,
2013-04-04 07:27:00,39.2,37.6,30.18,NW,309,5.0,10.0,94,0.00,,---,0.02,VWS V14.01,2013-04-04 12:27:00,
2013-04-04 07:28:00,39.2,37.6,30.18,WNW,302,7.0,10.0,94,0.00,,---,0.02,VWS V14.01,2013-04-04 12:28:00,
2013-04-04 07:37:00,39.2,37.6,30.19,NW,311,7.0,10.0,94,0.00,,---,0.02,VWS V14.01,2013-04-04 12:37:00,
2013-04-04 07:40:00,39.2,37.6,30.19,NW,326,3.0,10.0,94,0.00,,---,0.02,VWS V14.01,2013-04-04 12:40:00,
2013-04-04 07:43:00,39.2,37.6,30.19,NNW,328,9.0,11.0,94,0.00,,---,0.02,VWS V14.01,2013-04-04 12:43:00,
2013-04-04 07:52:00,39.2,37.3,30.19,WNW,294,7.0,12.0,93,0.00,,---,0.02,VWS V14.01,2013-04-04 12:52:00,
2013-04-04 07:58:00,39.4,37.5,30.19,NNW,331,6.0,12.0,93,0.00,,---,0.02,VWS V14.01,2013-04-04 12:58:00,
2013-04-04 08:01:00,39.5,37.7,30.19,NW,317,6.0,7.0,93,0.00,,---,0.02,VWS V14.01,2013-04-04 13:01:00,
2013-04-04 08:04:00,39.6,38.0,30.19,WNW,299,5.0,8.0,94,0.00,,---,0.02,VWS V14.01,2013-04-04 13:04:00,
2013-04-04 08:07:00,39.6,37.8,30.20,NW,323,7.0,10.0,93,0.00,,---,0.02,VWS V14.01,2013-04-04 13:07:00,
2013-04-04 08:10:00,39.7,37.8,30.20,NW,309,10.0,13.0,93,0.00,,---,0.02,VWS V14.01,2013-04-04 13:10:00,
2013-04-04 08:13:00,39.7,37.8,30.20,WNW,302,6.0,13.0,93,0.00,,---,0.02,VWS V14.01,2013-04-04 13:13:00,
2013-04-04 08:16:00,39.7,37.8,30.20,WNW,290,9.0,13.0,93,0.00,,---,0.02,VWS V14.01,2013-04-04 13:16:00,
2013-04-04 08:19:00,39.7,37.8,30.20,NW,322,4.0,13.0,93,0.00,,---,0.02,VWS V14.01,2013-04-04 13:19:00,
2013-04-04 08:22:00,39.8,38.0,30.20,NW,306,6.0,13.0,93,0.00,,---,0.02,VWS V14.01,2013-04-04 13:22:00,
2013-04-04 08:28:00,39.9,37.8,30.20,NW,325,6.0,13.0,92,0.00,,---,0.02,VWS V14.01,2013-04-04 13:28:00,
2013-04-04 08:32:00,40.0,37.9,30.20,NW,310,6.0,8.0,92,0.00,,---,0.02,VWS V14.01,2013-04-04 13:32:00,
2013-04-04 08:35:00,40.0,37.9,30.20,NW,309,8.0,15.0,92,0.00,,---,0.02,VWS V14.01,2013-04-04 13:35:00,
2013-04-04 08:38:00,39.8,37.4,30.20,NW,312,8.0,15.0,91,0.00,,---,0.02,VWS V14.01,2013-04-04 13:38:00,
2013-04-04 08:41:00,39.8,37.7,30.21,NNW,329,8.0,15.0,92,0.00,,---,0.02,VWS V14.01,2013-04-04 13:41:00,
2013-04-04 08:47:00,39.9,37.8,30.21,NW,312,6.0,15.0,92,0.00,,---,0.02,VWS V14.01,2013-04-04 13:47:00,
2013-04-04 08:53:00,40.0,37.9,30.21,WNW,292,9.0,15.0,92,0.00,,---,0.02,VWS V14.01,2013-04-04 13:53:00,
2013-04-04 08:58:00,40.1,38.0,30.22,WNW,302,7.0,15.0,92,0.00,,---,0.02,VWS V14.01,2013-04-04 13:58:00,
2013-04-04 08:59:00,40.2,38.1,30.22,NW,304,8.0,8.0,92,0.00,,---,0.02,VWS V14.01,2013-04-04 13:59:00,
2013-04-04 09:05:00,40.2,37.8,30.22,NW,321,10.0,12.0,91,0.00,,---,0.02,VWS V14.01,2013-04-04 14:05:00,
2013-04-04 09:08:00,40.3,37.9,30.22,WNW,301,7.0,13.0,91,0.00,,---,0.02,VWS V14.01,2013-04-04 14:08:00,
2013-04-04 09:11:00,40.4,37.7,30.22,NNW,329,9.0,13.0,90,0.00,,---,0.02,VWS V14.01,2013-04-04 14:11:00,
2013-04-04 09:14:00,40.4,37.7,30.23,NW,320,7.0,13.0,90,0.00,,---,0.02,VWS V14.01,2013-04-04 14:14:00,
2013-04-04 09:17:00,40.4,37.7,30.23,NW,314,5.0,13.0,90,0.00,,---,0.02,VWS V14.01,2013-04-04 14:17:00,
2013-04-04 09:23:00,40.6,37.9,30.23,NW,306,7.0,13.0,90,0.00,,---,0.02,VWS V14.01,2013-04-04 14:23:00,
2013-04-04 09:26:00,40.9,38.5,30.23,NW,313,7.0,13.0,91,0.00,,---,0.02,VWS V14.01,2013-04-04 14:26:00,
2013-04-04 09:28:00,41.0,38.3,30.23,NNW,335,7.0,13.0,90,0.00,,---,0.02,VWS V14.01,2013-04-04 14:28:00,
2013-04-04 09:29:00,41.1,38.1,30.23,NNW,332,9.0,11.0,89,0.00,,---,0.02,VWS V14.01,2013-04-04 14:29:00,
2013-04-04 09:32:00,41.2,38.2,30.23,NW,319,8.0,12.0,89,0.00,,---,0.02,VWS V14.01,2013-04-04 14:32:00,
2013-04-04 09:35:00,41.3,38.0,30.23,NW,304,7.0,12.0,88,0.00,,---,0.02,VWS V14.01,2013-04-04 14:35:00,
2013-04-04 09:42:00,41.2,37.9,30.23,NW,315,11.0,12.0,88,0.00,,---,0.02,VWS V14.01,2013-04-04 14:42:00,
2013-04-04 09:48:00,40.9,37.6,30.23,NNW,327,9.0,13.0,88,0.00,,---,0.02,VWS V14.01,2013-04-04 14:48:00,
2013-04-04 09:54:00,40.9,37.6,30.23,NW,305,8.0,13.0,88,0.00,,---,0.02,VWS V14.01,2013-04-04 14:54:00,
2013-04-04 09:57:00,40.9,37.6,30.23,NW,310,8.0,13.0,88,0.00,,---,0.02,VWS V14.01,2013-04-04 14:57:00,
2013-04-04 10:00:00,41.0,38.0,30.23,NNW,328,6.0,9.0,89,0.00,,---,0.02,VWS V14.01,2013-04-04 15:00:00,
2013-04-04 10:03:00,41.0,37.7,30.24,NW,321,6.0,12.0,88,0.00,,---,0.02,VWS V14.01,2013-04-04 15:03:00,
2013-04-04 10:06:00,41.0,37.7,30.24,WNW,301,9.0,14.0,88,0.00,,---,0.02,VWS V14.01,2013-04-04 15:06:00,
2013-04-04 10:12:00,41.1,37.8,30.24,NNW,338,5.0,14.0,88,0.00,,---,0.02,VWS V14.01,2013-04-04 15:12:00,
2013-04-04 10:18:00,41.3,37.7,30.24,NW,322,10.0,14.0,87,0.00,,---,0.02,VWS V14.01,2013-04-04 15:18:00,
2013-04-04 10:21:00,41.2,37.3,30.24,NW,304,10.0,14.0,86,0.00,,---,0.02,VWS V14.01,2013-04-04 15:21:00,
2013-04-04 10:24:00,41.1,37.5,30.24,NW,317,7.0,14.0,87,0.00,,---,0.02,VWS V14.01,2013-04-04 15:24:00,
2013-04-04 10:28:00,41.1,37.5,30.24,NW,309,4.0,14.0,87,0.00,,---,0.02,VWS V14.01,2013-04-04 15:28:00,
2013-04-04 10:30:00,41.0,37.4,30.25,NNW,337,6.0,13.0,87,0.00,,---,0.02,VWS V14.01,2013-04-04 15:30:00,
2013-04-04 10:33:00,41.0,37.4,30.24,NNW,329,7.0,13.0,87,0.00,,---,0.02,VWS V14.01,2013-04-04 15:33:00,
2013-04-04 10:40:00,41.1,37.2,30.24,NNW,329,8.0,13.0,86,0.00,,---,0.02,VWS V14.01,2013-04-04 15:40:00,
2013-04-04 10:43:00,41.2,37.3,30.24,NNW,327,8.0,13.0,86,0.00,,---,0.02,VWS V14.01,2013-04-04 15:43:00,
2013-04-04 10:49:00,41.6,37.7,30.24,NNW,329,5.0,13.0,86,0.00,,---,0.02,VWS V14.01,2013-04-04 15:49:00,
2013-04-04 10:55:00,42.0,37.8,30.25,NW,323,7.0,13.0,85,0.00,,---,0.02,VWS V14.01,2013-04-04 15:55:00,
2013-04-04 11:01:00,42.2,38.0,30.25,NNW,330,6.0,10.0,85,0.00,,---,0.02,VWS V14.01,2013-04-04 16:01:00,
2013-04-04 11:04:00,42.3,38.1,30.25,NW,306,8.0,13.0,85,0.00,,---,0.02,VWS V14.01,2013-04-04 16:04:00,
2013-04-04 11:07:00,42.4,38.2,30.25,NNW,338,6.0,13.0,85,0.00,,---,0.02,VWS V14.01,2013-04-04 16:07:00,
2013-04-04 11:10:00,42.5,38.0,30.25,NNW,336,6.0,13.0,84,0.00,,---,0.02,VWS V14.01,2013-04-04 16:10:00,
2013-04-04 11:19:00,43.1,38.6,30.25,NNW,340,5.0,13.0,84,0.00,,---,0.02,VWS V14.01,2013-04-04 16:19:00,
2013-04-04 11:22:00,43.4,38.6,30.25,NNW,340,8.0,13.0,83,0.00,,---,0.02,VWS V14.01,2013-04-04 16:22:00,
2013-04-04 11:25:00,43.4,38.6,30.25,NW,318,10.0,14.0,83,0.00,,---,0.02,VWS V14.01,2013-04-04 16:25:00,
2013-04-04 11:28:00,43.2,38.1,30.25,NW,310,6.0,16.0,82,0.00,,---,0.02,VWS V14.01,2013-04-04 16:28:00,
2013-04-04 11:34:00,43.6,39.4,30.25,NW,319,7.0,10.0,85,0.00,,---,0.02,VWS V14.01,2013-04-04 16:34:00,
2013-04-04 11:37:00,44.0,39.2,30.25,NW,306,5.0,10.0,83,0.00,,---,0.02,VWS V14.01,2013-04-04 16:37:00,
2013-04-04 11:40:00,43.8,39.0,30.25,NW,321,6.0,13.0,83,0.00,,---,0.02,VWS V14.01,2013-04-04 16:40:00,
2013-04-04 11:49:00,43.8,39.0,30.25,WNW,302,9.0,14.0,83,0.00,,---,0.02,VWS V14.01,2013-04-04 16:49:00,
2013-04-04 11:52:00,43.6,38.5,30.25,WNW,303,9.0,14.0,82,0.00,,---,0.02,VWS V14.01,2013-04-04 16:52:00,
2013-04-04 11:55:00,43.6,38.5,30.25,WNW,291,6.0,14.0,82,0.00,,---,0.02,VWS V14.01,2013-04-04 16:55:00,
2013-04-04 11:58:00,43.6,38.8,30.25,NNW,330,9.0,14.0,83,0.00,,---,0.02,VWS V14.01,2013-04-04 16:58:00,
2013-04-04 12:02:00,43.6,38.8,30.25,NNW,338,6.0,10.0,83,0.00,,---,0.02,VWS V14.01,2013-04-04 17:02:00,
2013-04-04 12:08:00,43.8,39.0,30.25,WNW,303,8.0,10.0,83,0.00,,---,0.02,VWS V14.01,2013-04-04 17:08:00,
2013-04-04 12:14:00,43.9,39.1,30.25,NNW,338,8.0,10.0,83,0.00,,---,0.02,VWS V14.01,2013-04-04 17:14:00,
2013-04-04 12:20:00,44.0,39.2,30.25,NW,315,3.0,10.0,83,0.00,,---,0.02,VWS V14.01,2013-04-04 17:20:00,
2013-04-04 12:23:00,44.0,39.5,30.25,NW,306,7.0,10.0,84,0.00,,---,0.02,VWS V14.01,2013-04-04 17:23:00,
2013-04-04 12:28:00,43.9,38.5,30.25,NNW,344,2.0,12.0,81,0.00,,---,0.02,VWS V14.01,2013-04-04 17:28:00,
2013-04-04 12:29:00,43.9,38.5,30.25,NNW,331,6.0,7.0,81,0.00,,---,0.02,VWS V14.01,2013-04-04 17:29:00,
2013-04-04 12:35:00,44.0,38.2,30.24,NW,315,12.0,13.0,80,0.00,,---,0.02,VWS V14.01,2013-04-04 17:35:00,
2013-04-04 12:44:00,44.3,38.8,30.24,WNW,289,6.0,13.0,81,0.00,,---,0.02,VWS V14.01,2013-04-04 17:44:00,
2013-04-04 12:50:00,44.7,39.2,30.24,NW,317,8.0,13.0,81,0.00,,---,0.02,VWS V14.01,2013-04-04 17:50:00,
2013-04-04 12:58:00,44.5,38.7,30.24,WNW,291,10.0,13.0,80,0.00,,---,0.02,VWS V14.01,2013-04-04 17:58:00,
2013-04-04 13:00:00,44.4,38.6,30.24,NW,306,8.0,12.0,80,0.00,,---,0.02,VWS V14.01,2013-04-04 18:00:00,
2013-04-04 13:06:00,44.1,38.3,30.24,NW,304,4.0,12.0,80,0.00,,---,0.02,VWS V14.01,2013-04-04 18:06:00,
2013-04-04 13:09:00,44.2,38.8,30.24,NNW,336,5.0,12.0,81,0.00,,---,0.02,VWS V14.01,2013-04-04 18:09:00,
2013-04-04 13:12:00,44.3,38.8,30.24,NNW,327,5.0,12.0,81,0.00,,---,0.02,VWS V14.01,2013-04-04 18:12:00,
2013-04-04 13:18:00,44.5,39.0,30.24,NW,309,6.0,12.0,81,0.00,,---,0.02,VWS V14.01,2013-04-04 18:18:00,
2013-04-04 13:27:00,44.1,39.0,30.24,NW,304,5.0,13.0,82,0.00,,---,0.02,VWS V14.01,2013-04-04 18:27:00,
2013-04-04 13:28:00,44.2,39.1,30.24,NNW,328,8.0,13.0,82,0.00,,---,0.02,VWS V14.01,2013-04-04 18:28:00,
2013-04-04 13:30:00,44.2,39.4,30.24,NW,315,8.0,8.0,83,0.00,,---,0.02,VWS V14.01,2013-04-04 18:30:00,
2013-04-04 13:36:00,44.3,39.2,30.24,NNW,328,7.0,11.0,82,0.00,,---,0.02,VWS V14.01,2013-04-04 18:36:00,
2013-04-04 13:42:00,44.4,39.3,30.24,WNW,297,2.0,11.0,82,0.00,,---,0.02,VWS V14.01,2013-04-04 18:42:00,
2013-04-04 13:45:00,44.5,39.4,30.23,NNW,330,10.0,11.0,82,0.00,,---,0.02,VWS V14.01,2013-04-04 18:45:00,
2013-04-04 13:54:00,44.9,39.1,30.23,NW,312,8.0,12.0,80,0.00,,---,0.02,VWS V14.01,2013-04-04 18:54:00,
2013-04-04 13:58:00,44.7,39.2,30.23,WNW,302,4.0,12.0,81,0.00,,---,0.02,VWS V14.01,2013-04-04 18:58:00,
2013-04-04 14:01:00,44.8,39.0,30.23,NW,325,7.0,10.0,80,0.00,,---,0.02,VWS V14.01,2013-04-04 19:01:00,
2013-04-04 14:04:00,45.0,39.5,30.22,NNW,337,4.0,10.0,81,0.00,,---,0.02,VWS V14.01,2013-04-04 19:04:00,
2013-04-04 14:07:00,45.2,39.1,30.22,NW,326,4.0,10.0,79,0.00,,---,0.02,VWS V14.01,2013-04-04 19:07:00,
2013-04-04 14:13:00,45.4,39.3,30.22,NNW,338,9.0,11.0,79,0.00,,---,0.02,VWS V14.01,2013-04-04 19:13:00,
2013-04-04 14:19:00,45.8,40.0,30.22,NW,306,4.0,11.0,80,0.00,,---,0.02,VWS V14.01,2013-04-04 19:19:00,
2013-04-04 14:22:00,45.8,39.7,30.22,NNW,327,5.0,11.0,79,0.00,,---,0.02,VWS V14.01,2013-04-04 19:22:00,
2013-04-04 14:25:00,45.9,40.1,30.22,NW,313,9.0,11.0,80,0.00,,---,0.02,VWS V14.01,2013-04-04 19:25:00,
2013-04-04 14:28:00,45.9,39.8,30.21,NW,316,5.0,11.0,79,0.00,,---,0.02,VWS V14.01,2013-04-04 19:28:00,
2013-04-04 14:31:00,45.9,39.8,30.22,North,355,7.0,11.0,79,0.00,,---,0.02,VWS V14.01,2013-04-04 19:31:00,
2013-04-04 14:37:00,46.3,40.5,30.22,North,351,7.0,11.0,80,0.00,,---,0.02,VWS V14.01,2013-04-04 19:37:00,
2013-04-04 14:40:00,46.4,40.2,30.21,NW,320,3.0,11.0,79,0.00,,---,0.02,VWS V14.01,2013-04-04 19:40:00,
2013-04-04 14:49:00,45.8,39.3,30.21,NW,316,4.0,12.0,78,0.00,,---,0.02,VWS V14.01,2013-04-04 19:49:00,
2013-04-04 14:52:00,45.9,40.1,30.21,NW,309,5.0,12.0,80,0.00,,---,0.02,VWS V14.01,2013-04-04 19:52:00,
2013-04-04 14:55:00,46.1,40.0,30.21,WNW,297,7.0,12.0,79,0.00,,---,0.02,VWS V14.01,2013-04-04 19:55:00,
2013-04-04 14:58:00,46.0,39.9,30.21,NW,309,6.0,12.0,79,0.00,,---,0.02,VWS V14.01,2013-04-04 19:58:00,
2013-04-04 15:02:00,46.0,39.9,30.20,NW,309,6.0,8.0,79,0.00,,---,0.02,VWS V14.01,2013-04-04 20:02:00,
2013-04-04 15:08:00,46.0,39.9,30.20,North,349,2.0,10.0,79,0.00,,---,0.02,VWS V14.01,2013-04-04 20:08:00,
2013-04-04 15:17:00,46.2,40.4,30.20,WNW,290,4.0,10.0,80,0.00,,---,0.02,VWS V14.01,2013-04-04 20:17:00,
2013-04-04 15:23:00,46.1,39.6,30.20,NW,305,4.0,10.0,78,0.00,,---,0.02,VWS V14.01,2013-04-04 20:23:00,
2013-04-04 15:26:00,46.1,40.3,30.19,WNW,297,6.0,10.0,80,0.00,,---,0.02,VWS V14.01,2013-04-04 20:26:00,
2013-04-04 15:28:00,46.3,40.2,30.19,NW,321,5.0,10.0,79,0.00,,---,0.02,VWS V14.01,2013-04-04 20:28:00,
2013-04-04 15:32:00,46.8,40.6,30.19,NW,325,7.0,9.0,79,0.00,,---,0.02,VWS V14.01,2013-04-04 20:32:00,
2013-04-04 15:35:00,47.0,40.5,30.19,North,355,4.0,10.0,78,0.00,,---,0.02,VWS V14.01,2013-04-04 20:35:00,
2013-04-04 15:38:00,47.1,40.3,30.19,NNW,332,4.0,10.0,77,0.00,,---,0.02,VWS V14.01,2013-04-04 20:38:00,
2013-04-04 15:44:00,47.4,40.6,30.18,NW,316,4.0,10.0,77,0.00,,---,0.02,VWS V14.01,2013-04-04 20:44:00,
2013-04-04 15:47:00,47.6,40.8,30.18,NW,315,4.0,10.0,77,0.00,,---,0.02,VWS V14.01,2013-04-04 20:47:00,
2013-04-04 15:57:00,48.0,40.8,30.18,NNW,335,2.0,10.0,76,0.00,,---,0.02,VWS V14.01,2013-04-04 20:57:00,
2013-04-04 15:58:00,48.1,41.2,30.18,NW,306,5.0,10.0,77,0.00,,---,0.02,VWS V14.01,2013-04-04 20:58:00,
2013-04-04 16:00:00,48.2,40.7,30.18,WNW,296,7.0,10.0,75,0.00,,---,0.02,VWS V14.01,2013-04-04 21:00:00,
2013-04-04 16:06:00,47.8,40.6,30.18,NW,325,5.0,10.0,76,0.00,,---,0.02,VWS V14.01,2013-04-04 21:06:00,
2013-04-04 16:09:00,47.8,40.6,30.18,North,351,7.0,10.0,76,0.00,,---,0.02,VWS V14.01,2013-04-04 21:09:00,
2013-04-04 16:12:00,47.8,40.6,30.18,WNW,303,5.0,10.0,76,0.00,,---,0.02,VWS V14.01,2013-04-04 21:12:00,
2013-04-04 16:15:00,47.8,40.6,30.17,NW,309,2.0,10.0,76,0.00,,---,0.02,VWS V14.01,2013-04-04 21:15:00,
2013-04-04 16:18:00,48.0,40.8,30.17,NNW,346,5.0,10.0,76,0.00,,---,0.02,VWS V14.01,2013-04-04 21:18:00,
2013-04-04 16:24:00,48.3,40.8,30.17,NNW,348,7.0,10.0,75,0.00,,---,0.02,VWS V14.01,2013-04-04 21:24:00,
2013-04-04 16:30:00,48.7,41.5,30.17,NW,317,5.0,7.0,76,0.00,,---,0.02,VWS V14.01,2013-04-04 21:30:00,
2013-04-04 16:39:00,48.8,41.2,30.17,NNW,333,7.0,11.0,75,0.00,,---,0.02,VWS V14.01,2013-04-04 21:39:00,
2013-04-04 16:45:00,48.7,41.1,30.17,NNW,342,6.0,12.0,75,0.00,,---,0.02,VWS V14.01,2013-04-04 21:45:00,
2013-04-04 16:51:00,48.7,41.1,30.17,North,355,4.0,12.0,75,0.00,,---,0.02,VWS V14.01,2013-04-04 21:51:00,
2013-04-04 16:55:00,48.8,40.9,30.17,NNW,333,6.0,12.0,74,0.00,,---,0.02,VWS V14.01,2013-04-04 21:55:00,
2013-04-04 16:58:00,49.0,41.4,30.17,North,351,5.0,12.0,75,0.00,,---,0.02,VWS V14.01,2013-04-04 21:58:00,
2013-04-04 17:07:00,49.2,41.3,30.17,NNW,337,4.0,9.0,74,0.00,,---,0.02,VWS V14.01,2013-04-04 22:07:00,
2013-04-04 17:10:00,49.3,42.1,30.17,NW,319,6.0,9.0,76,0.00,,---,0.02,VWS V14.01,2013-04-04 22:10:00,
2013-04-04 17:13:00,49.4,41.5,30.17,NW,323,6.0,9.0,74,0.00,,---,0.02,VWS V14.01,2013-04-04 22:13:00,
2013-04-04 17:19:00,49.5,41.2,30.17,NW,315,5.0,9.0,73,0.00,,---,0.02,VWS V14.01,2013-04-04 22:19:00,
2013-04-04 17:22:00,49.5,41.2,30.16,NNW,336,6.0,9.0,73,0.00,,---,0.02,VWS V14.01,2013-04-04 22:22:00,
2013-04-04 17:25:00,49.6,41.7,30.16,NNW,336,4.0,9.0,74,0.00,,---,0.02,VWS V14.01,2013-04-04 22:25:00,
2013-04-04 17:28:00,49.7,41.4,30.16,WNW,298,7.0,9.0,73,0.00,,---,0.02,VWS V14.01,2013-04-04 22:28:00,
2013-04-04 17:34:00,49.9,42.3,30.16,NW,323,0.0,9.0,75,0.00,,---,0.02,VWS V14.01,2013-04-04 22:34:00,
2013-04-04 17:37:00,50.3,42.0,30.16,NNW,329,5.0,9.0,73,0.00,,---,0.02,VWS V14.01,2013-04-04 22:37:00,
2013-04-04 17:40:00,50.8,42.5,30.16,North,355,4.0,10.0,73,0.00,,---,0.02,VWS V14.01,2013-04-04 22:40:00,
2013-04-04 17:43:00,50.9,42.2,30.16,NNE,17,3.0,10.0,72,0.00,,---,0.02,VWS V14.01,2013-04-04 22:43:00,
2013-04-04 17:46:00,50.9,42.2,30.17,NNW,328,3.0,10.0,72,0.00,,---,0.02,VWS V14.01,2013-04-04 22:46:00,
2013-04-04 17:52:00,51.5,42.0,30.16,NNW,339,4.0,10.0,70,0.00,,---,0.02,VWS V14.01,2013-04-04 22:52:00,
2013-04-04 17:55:00,51.4,42.3,30.16,North,349,6.0,10.0,71,0.00,,---,0.02,VWS V14.01,2013-04-04 22:55:00,
2013-04-04 17:58:00,51.0,41.6,30.16,North,351,6.0,10.0,70,0.00,,---,0.02,VWS V14.01,2013-04-04 22:58:00,
2013-04-04 18:05:00,51.2,41.8,30.16,NNW,335,5.0,9.0,70,0.00,,---,0.02,VWS V14.01,2013-04-04 23:05:00,
2013-04-04 18:08:00,51.3,42.2,30.16,North,355,3.0,9.0,71,0.00,,---,0.02,VWS V14.01,2013-04-04 23:08:00,
2013-04-04 18:14:00,51.3,41.9,30.16,North,355,2.0,9.0,70,0.00,,---,0.02,VWS V14.01,2013-04-04 23:14:00,
2013-04-04 18:20:00,51.2,42.5,30.16,NNW,346,7.0,9.0,72,0.00,,---,0.02,VWS V14.01,2013-04-04 23:20:00,
2013-04-04 18:23:00,51.4,42.0,30.16,North,11,2.0,9.0,70,0.00,,---,0.02,VWS V14.01,2013-04-04 23:23:00,
2013-04-04 18:26:00,51.4,42.0,30.16,North,355,4.0,9.0,70,0.00,,---,0.02,VWS V14.01,2013-04-04 23:26:00,
2013-04-04 18:28:00,51.4,42.0,30.16,North,355,1.0,9.0,70,0.00,,---,0.02,VWS V14.01,2013-04-04 23:28:00,
2013-04-04 18:32:00,51.1,41.3,30.16,NE,46,3.0,7.0,69,0.00,,---,0.02,VWS V14.01,2013-04-04 23:32:00,
2013-04-04 18:35:00,50.6,41.2,30.16,NNE,19,5.0,7.0,70,0.00,,---,0.02,VWS V14.01,2013-04-04 23:35:00,
2013-04-04 18:38:00,50.2,40.8,30.16,NNE,30,4.0,8.0,70,0.00,,---,0.02,VWS V14.01,2013-04-04 23:38:00,
2013-04-04 18:44:00,50.4,41.4,30.16,NNW,342,3.0,8.0,71,0.00,,---,0.02,VWS V14.01,2013-04-04 23:44:00,
2013-04-04 18:47:00,50.4,41.4,30.16,North,5,4.0,8.0,71,0.00,,---,0.02,VWS V14.01,2013-04-04 23:47:00,
2013-04-04 18:50:00,50.3,41.3,30.16,North,10,2.0,8.0,71,0.00,,---,0.02,VWS V14.01,2013-04-04 23:50:00,
2013-04-04 18:53:00,50.3,41.6,30.16,NNE,26,3.0,8.0,72,0.00,,---,0.02,VWS V14.01,2013-04-04 23:53:00,
2013-04-04 18:56:00,50.0,41.0,30.16,NE,44,3.0,8.0,71,0.00,,---,0.02,VWS V14.01,2013-04-04 23:56:00,
2013-04-04 18:58:00,50.0,41.0,30.16,NNE,23,3.0,8.0,71,0.00,,---,0.02,VWS V14.01,2013-04-04 23:58:00,
2013-04-04 18:59:00,49.9,40.9,30.16,NNE,23,3.0,6.0,71,0.00,,---,0.02,VWS V14.01,2013-04-04 23:59:00,
2013-04-04 19:05:00,49.9,41.2,30.16,North,5,3.0,6.0,72,0.00,,---,0.02,VWS V14.01,2013-04-05 00:05:00,
2013-04-04 19:11:00,49.7,41.0,30.16,NNE,27,3.0,6.0,72,0.00,,---,0.02,VWS V14.01,2013-04-05 00:11:00,
2013-04-04 19:14:00,49.6,41.0,30.16,NE,37,4.0,6.0,72,0.00,,---,0.02,VWS V14.01,2013-04-05 00:14:00,
2013-04-04 19:17:00,49.4,41.1,30.15,NNE,31,2.0,6.0,73,0.00,,---,0.02,VWS V14.01,2013-04-05 00:17:00,
2013-04-04 19:20:00,49.2,41.3,30.16,North,5,5.0,6.0,74,0.00,,---,0.02,VWS V14.01,2013-04-05 00:20:00,
2013-04-04 19:24:00,49.1,40.8,30.15,NNW,332,2.0,6.0,73,0.00,,---,0.02,VWS V14.01,2013-04-05 00:24:00,
2013-04-04 19:28:00,49.0,40.7,30.16,NNE,28,2.0,6.0,73,0.00,,---,0.02,VWS V14.01,2013-04-05 00:28:00,
2013-04-04 19:33:00,48.7,40.8,30.16,NNE,13,2.0,5.0,74,0.00,,---,0.02,VWS V14.01,2013-04-05 00:33:00,
2013-04-04 19:36:00,48.6,41.0,30.16,NNE,16,2.0,5.0,75,0.00,,---,0.02,VWS V14.01,2013-04-05 00:36:00,
2013-04-04 19:42:00,48.1,40.6,30.16,NNE,32,1.0,5.0,75,0.00,,---,0.02,VWS V14.01,2013-04-05 00:42:00,
2013-04-04 19:48:00,47.6,40.4,30.16,NNE,32,0.0,5.0,76,0.00,,---,0.02,VWS V14.01,2013-04-05 00:48:00,
2013-04-04 19:51:00,47.4,40.6,30.16,NNE,21,0.0,5.0,77,0.00,,---,0.02,VWS V14.01,2013-04-05 00:51:00,
2013-04-04 19:54:00,47.2,40.7,30.16,NNE,21,0.0,5.0,78,0.00,,---,0.02,VWS V14.01,2013-04-05 00:54:00,
2013-04-04 19:57:00,47.0,40.5,30.16,NNE,21,0.0,5.0,78,0.00,,---,0.02,VWS V14.01,2013-04-05 00:57:00,
2013-04-04 20:00:00,46.8,40.3,30.16,NNE,21,1.0,2.0,78,0.00,,---,0.02,VWS V14.01,2013-04-05 01:00:00,
2013-04-04 20:06:00,46.3,40.2,30.17,NNE,21,0.0,3.0,79,0.00,,---,0.02,VWS V14.01,2013-04-05 01:06:00,
2013-04-04 20:09:00,46.1,40.0,30.17,NNE,21,0.0,3.0,79,0.00,,---,0.02,VWS V14.01,2013-04-05 01:09:00,
2013-04-04 20:12:00,46.0,39.9,30.17,NNE,21,0.0,3.0,79,0.00,,---,0.02,VWS V14.01,2013-04-05 01:12:00,
2013-04-04 20:15:00,45.7,39.9,30.17,NNE,21,0.0,3.0,80,0.00,,---,0.02,VWS V14.01,2013-04-05 01:15:00,
2013-04-04 20:21:00,45.0,39.5,30.17,NNE,21,0.0,3.0,81,0.00,,---,0.02,VWS V14.01,2013-04-05 01:21:00,
2013-04-04 20:24:00,44.4,39.3,30.17,NNE,21,1.0,3.0,82,0.00,,---,0.02,VWS V14.01,2013-04-05 01:24:00,
2013-04-04 20:28:00,43.7,38.9,30.17,NNE,21,0.0,3.0,83,0.00,,---,0.02,VWS V14.01,2013-04-05 01:28:00,
2013-04-04 20:30:00,43.4,38.9,30.17,NNE,21,0.0,0.0,84,0.00,,---,0.02,VWS V14.01,2013-04-05 01:30:00,
2013-04-04 20:37:00,42.8,38.6,30.18,NNE,21,0.0,0.0,85,0.00,,---,0.02,VWS V14.01,2013-04-05 01:37:00,
2013-04-04 20:40:00,42.6,38.7,30.18,NNE,21,0.0,0.0,86,0.00,,---,0.02,VWS V14.01,2013-04-05 01:40:00,
2013-04-04 20:46:00,42.3,38.7,30.18,NNE,21,0.0,0.0,87,0.00,,---,0.02,VWS V14.01,2013-04-05 01:46:00,
2013-04-04 20:49:00,42.2,38.6,30.18,NNE,21,0.0,0.0,87,0.00,,---,0.02,VWS V14.01,2013-04-05 01:49:00,
2013-04-04 20:52:00,42.0,38.4,30.18,NNE,21,0.0,0.0,87,0.00,,---,0.02,VWS V14.01,2013-04-05 01:52:00,
2013-04-04 20:55:00,41.9,38.6,30.18,NNE,21,0.0,0.0,88,0.00,,---,0.02,VWS V14.01,2013-04-05 01:55:00,
2013-04-04 20:58:00,41.8,38.5,30.18,NNE,21,0.0,0.0,88,0.00,,---,0.02,VWS V14.01,2013-04-05 01:58:00,
2013-04-04 21:04:00,41.5,38.5,30.18,NNE,21,0.0,0.0,89,0.00,,---,0.02,VWS V14.01,2013-04-05 02:04:00,
2013-04-04 21:07:00,41.3,38.0,30.18,NNE,21,0.0,0.0,88,0.00,,---,0.02,VWS V14.01,2013-04-05 02:07:00,
2013-04-04 21:10:00,41.1,37.8,30.18,NNE,21,0.0,0.0,88,0.00,,---,0.02,VWS V14.01,2013-04-05 02:10:00,
2013-04-04 21:13:00,40.8,37.8,30.18,NNE,21,0.0,0.0,89,0.00,,---,0.02,VWS V14.01,2013-04-05 02:13:00,
2013-04-04 21:19:00,40.3,37.3,30.19,NNE,21,1.0,1.0,89,0.00,,---,0.02,VWS V14.01,2013-04-05 02:19:00,
2013-04-04 21:22:00,40.3,37.6,30.18,NNE,21,0.0,1.0,90,0.00,,---,0.02,VWS V14.01,2013-04-05 02:22:00,
2013-04-04 21:25:00,40.2,37.5,30.19,NNE,21,1.0,1.0,90,0.00,,---,0.02,VWS V14.01,2013-04-05 02:25:00,
2013-04-04 21:28:00,40.1,37.4,30.18,NNE,21,1.0,2.0,90,0.00,,---,0.02,VWS V14.01,2013-04-05 02:28:00,
2013-04-04 21:37:00,39.8,37.4,30.19,NNE,21,0.0,2.0,91,0.00,,---,0.02,VWS V14.01,2013-04-05 02:37:00,
2013-04-04 21:47:00,39.6,37.2,30.20,NNE,21,1.0,2.0,91,0.00,,---,0.02,VWS V14.01,2013-04-05 02:47:00,
2013-04-04 21:53:00,39.6,37.2,30.20,NNE,21,0.0,2.0,91,0.00,,---,0.02,VWS V14.01,2013-04-05 02:53:00,
2013-04-04 21:58:00,39.4,37.0,30.20,NNE,21,0.0,2.0,91,0.00,,---,0.02,VWS V14.01,2013-04-05 02:58:00,
2013-04-04 22:01:00,37.9,36.1,30.22,NNE,21,0.0,0.0,93,0.00,,---,0.02,VWS V14.01,2013-04-05 03:01:00,
2013-04-04 22:02:00,39.3,36.9,30.20,NNE,21,0.0,0.0,91,0.00,,---,0.02,VWS V14.01,2013-04-05 03:02:00,
2013-04-04 22:04:00,37.8,36.0,30.22,NNE,21,0.0,0.0,93,0.00,,---,0.02,VWS V14.01,2013-04-05 03:04:00,
2013-04-04 22:05:00,39.2,36.8,30.19,NNE,21,0.0,0.0,91,0.00,,---,0.02,VWS V14.01,2013-04-05 03:05:00,
2013-04-04 22:08:00,39.1,36.7,30.20,NNE,21,0.0,0.0,91,0.00,,---,0.02,VWS V14.01,2013-04-05 03:08:00,
2013-04-04 22:10:00,37.3,35.5,30.22,NNE,21,0.0,0.0,93,0.00,,---,0.02,VWS V14.01,2013-04-05 03:10:00,
2013-04-04 22:13:00,37.2,35.4,30.22,NNE,21,0.0,0.0,93,0.00,,---,0.02,VWS V14.01,2013-04-05 03:13:00,
2013-04-04 22:14:00,39.0,36.9,30.20,NNE,21,0.0,0.0,92,0.00,,---,0.02,VWS V14.01,2013-04-05 03:14:00,
2013-04-04 22:16:00,37.2,35.6,30.22,NNE,21,0.0,0.0,94,0.00,,---,0.02,VWS V14.01,2013-04-05 03:16:00,
2013-04-04 22:17:00,39.0,36.9,30.20,NNE,21,0.0,0.0,92,0.00,,---,0.02,VWS V14.01,2013-04-05 03:17:00,
2013-04-04 22:19:00,37.3,35.7,30.22,NNE,21,0.0,0.0,94,0.00,,---,0.02,VWS V14.01,2013-04-05 03:19:00,
2013-04-04 22:20:00,39.0,36.9,30.20,NNE,21,0.0,1.0,92,0.00,,---,0.02,VWS V14.01,2013-04-05 03:20:00,
2013-04-04 22:23:00,38.9,36.8,30.20,NNE,21,1.0,2.0,92,0.00,,---,0.02,VWS V14.01,2013-04-05 03:23:00,
2013-04-04 22:25:00,37.1,35.5,30.22,NNE,21,0.0,0.0,94,0.00,,---,0.02,VWS V14.01,2013-04-05 03:25:00,
2013-04-04 22:28:00,38.8,36.7,30.19,NNE,21,2.0,2.0,92,0.00,,---,0.02,VWS V14.01,2013-04-05 03:28:00,
2013-04-04 22:29:00,38.7,36.6,30.20,NNE,21,1.0,2.0,92,0.00,,---,0.02,VWS V14.01,2013-04-05 03:29:00,
2013-04-04 22:30:00,36.9,35.1,30.22,NNE,21,0.0,0.0,93,0.00,,---,0.02,VWS V14.01,2013-04-05 03:30:00,
2013-04-04 22:32:00,36.8,35.0,30.22,NNE,21,0.0,0.0,93,0.00,,---,0.02,VWS V14.01,2013-04-05 03:32:00,
2013-04-04 22:35:00,38.7,36.8,30.20,NNE,21,0.0,2.0,93,0.00,,---,0.02,VWS V14.01,2013-04-05 03:35:00,
2013-04-04 22:38:00,36.5,34.9,30.23,NNE,21,0.0,0.0,94,0.00,,---,0.02,VWS V14.01,2013-04-05 03:38:00,
2013-04-04 22:41:00,38.7,36.8,30.21,NNE,21,0.0,2.0,93,0.00,,---,0.02,VWS V14.01,2013-04-05 03:41:00,
2013-04-04 22:44:00,36.1,34.3,30.23,NNE,21,0.0,0.0,93,0.00,,---,0.02,VWS V14.01,2013-04-05 03:44:00,
2013-04-04 22:47:00,36.0,34.4,30.23,NNE,21,0.0,0.0,94,0.00,,---,0.02,VWS V14.01,2013-04-05 03:47:00,
2013-04-04 22:48:00,38.6,36.8,30.21,NNE,21,0.0,2.0,93,0.00,,---,0.02,VWS V14.01,2013-04-05 03:48:00,
2013-04-04 22:51:00,38.4,36.3,30.21,NNE,21,0.0,2.0,92,0.00,,---,0.02,VWS V14.01,2013-04-05 03:51:00,
2013-04-04 22:53:00,35.9,34.3,30.22,NNE,21,0.0,0.0,94,0.00,,---,0.02,VWS V14.01,2013-04-05 03:53:00,
2013-04-04 22:56:00,35.9,34.3,30.22,NNE,22,3.0,3.0,94,0.00,,---,0.02,VWS V14.01,2013-04-05 03:56:00,
2013-04-04 22:57:00,38.0,35.9,30.22,NNE,21,0.0,2.0,92,0.00,,---,0.02,VWS V14.01,2013-04-05 03:57:00,
2013-04-04 22:58:00,38.0,36.2,30.21,NNE,21,0.0,2.0,93,0.00,,---,0.02,VWS V14.01,2013-04-05 03:58:00,
2013-04-04 22:59:00,35.6,34.0,30.22,NNE,30,2.0,3.0,94,0.00,,---,0.02,VWS V14.01,2013-04-05 03:59:00,
2013-04-04 23:00:00,35.6,34.0,30.22,NNE,30,3.0,3.0,94,0.00,,---,0.02,VWS V14.01,2013-04-05 04:00:00,
2013-04-04 23:02:00,35.3,33.8,30.21,NNE,30,1.0,3.0,94,0.00,,---,0.02,VWS V14.01,2013-04-05 04:02:00,
2013-04-04 23:08:00,35.2,33.7,30.22,NNE,30,2.0,3.0,94,0.00,,---,0.02,VWS V14.01,2013-04-05 04:08:00,
2013-04-04 23:11:00,35.3,34.0,30.22,NNE,30,1.0,3.0,95,0.00,,---,0.02,VWS V14.01,2013-04-05 04:11:00,
2013-04-04 23:14:00,35.3,34.0,30.22,NNE,30,1.0,3.0,95,0.00,,---,0.02,VWS V14.01,2013-04-05 04:14:00,
2013-04-04 23:17:00,35.3,34.0,30.22,NNE,30,1.0,3.0,95,0.00,,---,0.02,VWS V14.01,2013-04-05 04:17:00,
2013-04-04 23:23:00,35.1,33.8,30.21,NNE,30,1.0,3.0,95,0.00,,---,0.02,VWS V14.01,2013-04-05 04:23:00,
2013-04-04 23:26:00,35.0,33.7,30.21,NNE,30,1.0,3.0,95,0.00,,---,0.02,VWS V14.01,2013-04-05 04:26:00,
2013-04-04 23:29:00,35.0,33.7,30.21,NNE,30,1.0,3.0,95,0.00,,---,0.02,VWS V14.01,2013-04-05 04:29:00,
2013-04-04 23:30:00,35.0,33.7,30.21,NNE,30,1.0,3.0,95,0.00,,---,0.02,VWS V14.01,2013-04-05 04:30:00,
2013-04-04 23:32:00,35.0,33.7,30.21,NNE,30,0.0,1.0,95,0.00,,---,0.02,VWS V14.01,2013-04-05 04:32:00,
2013-04-04 23:35:00,35.1,33.8,30.21,NNE,30,0.0,1.0,95,0.00,,---,0.02,VWS V14.01,2013-04-05 04:35:00,
2013-04-04 23:38:00,35.1,33.8,30.21,NNE,30,0.0,1.0,95,0.00,,---,0.02,VWS V14.01,2013-04-05 04:38:00,
2013-04-04 23:42:00,35.0,33.7,30.21,NNE,30,0.0,1.0,95,0.00,,---,0.02,VWS V14.01,2013-04-05 04:42:00,
2013-04-04 23:45:00,34.9,33.6,30.21,NNE,30,0.0,1.0,95,0.00,,---,0.02,VWS V14.01,2013-04-05 04:45:00,
2013-04-04 23:51:00,34.9,33.6,30.20,NNE,30,0.0,1.0,95,0.00,,---,0.02,VWS V14.01,2013-04-05 04:51:00,
2013-04-04 23:54:00,34.8,33.5,30.20,NNE,30,0.0,1.0,95,0.00,,---,0.02,VWS V14.01,2013-04-05 04:54:00,
2013-04-04 23:57:00,34.6,33.3,30.20,NNE,30,0.0,1.0,95,0.00,,---,0.02,VWS V14.01,2013-04-05 04:57:00,